QPF
0.21 0.15 0.14 0.15 0.13 0.11 0.13 0.11 0.09 0.12 0.09 0.07 0.08 0.07 0.05 0.07 0.08 0.06 0.14 0.16 0.12 0.08 0.07 0.08 0.07 0.05 0.02 0.01 0.01 0.01 0.01 0.01 0.01 0.01 0.01 0.01 0.01 0.01 0.01 0.01 0.01 0.01 0.01 0.01 0.01 0.01 0.01 0.01 0.01
0.07 0.11 0.19 0.18 0.11 0.11 0.13 0.09 0.09 0.07 0.07 0.06 0.05 0.05 0.07 0.06 0.04 0.03 0.06 0.09 0.09 0.06 0.04 0.04 0.05 0.03 0.01 0.01 0.01 0.00 0.00 0.00 0.01 0.01 0.01 0.01 0.01 0.01 0.01 0.01 0.01 0.01 0.01 0.01 0.02 0.01 0.01 0.01 0.01
0.07 0.16 0.25 0.22 0.14 0.12 0.11 0.10 0.08 0.04 0.03 0.03 0.03 0.04 0.08 0.08 0.02 0.01 0.03 0.05 0.05 0.03 0.02 0.02 0.04 0.03 0.02 0.01 0.01 0.01 0.01 0.00 0.00 0.00 0.01 0.02 0.01 0.01 0.01 0.01 0.02 0.01 0.01 0.01 0.02 0.01 0.01 0.01 0.01
0.11 0.20 0.23 0.20 0.16 0.12 0.11 0.13 0.09 0.04 0.03 0.02 0.03 0.04 0.07 0.08 0.02 0.01 0.01 0.01 0.02 0.02 0.01 0.01 0.03 0.02 0.02 0.02 0.01 0.01 0.01 0.00 0.00 0.00 0.01 0.02 0.02 0.02 0.02 0.02 0.02 0.01 0.01 0.01 0.02 0.02 0.01 0.01 0.01
0.18 0.23 0.19 0.19 0.18 0.10 0.13 0.13 0.10 0.05 0.04 0.03 0.02 0.04 0.08 0.07 0.02 0.01 0.03 0.02 0.02 0.03 0.01 0.01 0.01 0.01 0.01 0.01 0.00 0.00 0.00 0.00 0.00 0.01 0.01 0.01 0.01 0.01 0.01 0.01 0.02 0.01 0.01 0.01 0.01 0.02 0.01 0.01 0.01
0.24 0.25 0.18 0.16 0.15 0.09 0.14 0.14 0.14 0.07 0.03 0.02 0.01 0.03 0.07 0.08 0.05 0.03 0.03 0.04 0.04 0.03 0.02 0.01 0.01 0.01 0.01 0.01 0.00 0.00 0.00 0.00 0.01 0.01 0.01 0.01 0.01 0.01 0.01 0.02 0.02 0.02 0.01 0.01 0.01 0.01 0.01 0.02 0.01
0.26 0.24 0.17 0.13 0.13 0.11 0.08 0.09 0.10 0.08 0.04 0.02 0.01 0.03 0.06 0.08 0.07 0.04 0.03 0.03 0.04 0.06 0.05 0.02 0.01 0.01 0.01 0.01 0.01 0.00 0.00 0.00 0.00 0.01 0.01 0.01 0.02 0.02 0.02 0.02 0.03 0.03 0.03 0.02 0.02 0.01 0.02 0.02 0.02
0.26 0.24 0.15 0.10 0.09 0.12 0.11 0.08 0.08 0.07 0.06 0.03 0.01 0.02 0.05 0.06 0.05 0.04 0.04 0.03 0.09 0.12 0.05 0.02 0.01 0.00 0.00 0.00 0.00 0.00 0.01 0.00 0.01 0.01 0.01 0.01 0.02 0.02 0.03 0.04 0.04 0.04 0.04 0.03 0.02 0.02 0.03 0.02 0.02
0.26 0.22 0.14 0.13 0.10 0.10 0.10 0.07 0.10 0.05 0.08 0.06 0.04 0.03 0.02 0.04 0.04 0.03 0.03 0.03 0.06 0.04 0.01 0.00 0.00 0.00 0.00 0.00 0.00 0.00 0.00 0.00 0.01 0.01 0.01 0.01 0.01 0.01 0.01 0.03 0.04 0.05 0.06 0.06 0.05 0.04 0.04 0.03 0.03
0.21 0.18 0.14 0.11 0.09 0.09 0.06 0.03 0.05 0.06 0.06 0.05 0.05 0.04 0.04 0.04 0.04 0.03 0.02 0.02 0.01 0.01 0.00 0.00 0.00 0.00 0.00 0.00 0.00 0.00 0.00 0.00 0.00 0.00 0.00 0.00 0.00 0.00 0.00 0.01 0.04 0.05 0.07 0.07 0.06 0.05 0.04 0.03 0.01
0.16 0.13 0.10 0.08 0.07 0.06 0.05 0.02 0.02 0.05 0.09 0.10 0.06 0.04 0.05 0.04 0.03 0.01 0.01 0.00 0.00 0.00 0.00 0.00 0.00 0.00 0.00 0.00 0.00 0.00 0.00 0.00 0.00 0.00 0.00 0.00 0.00 0.00 0.00 0.00 0.01 0.02 0.04 0.04 0.05 0.04 0.02 0.02 0.02
0.15 0.13 0.10 0.12 0.11 0.07 0.05 0.04 0.04 0.03 0.05 0.06 0.04 0.04 0.05 0.04 0.02 0.01 0.00 0.00 0.00 0.00 0.00 0.00 0.00 0.00 0.00 0.00 0.00 0.00 0.00 0.00 0.00 0.00 0.00 0.00 0.00 0.00 0.01 0.01 0.00 0.01 0.01 0.02 0.03 0.03 0.02 0.01 0.02
0.14 0.12 0.10 0.07 0.09 0.07 0.05 0.08 0.09 0.03 0.01 0.01 0.02 0.06 0.07 0.04 0.03 0.01 0.00 0.00 0.00 0.00 0.00 0.00 0.00 0.00 0.00 0.00 0.00 0.00 0.00 0.00 0.00 0.00 0.00 0.00 0.00 0.00 0.00 0.00 0.00 0.00 0.01 0.01 0.02 0.03 0.02 0.01 0.02
0.16 0.14 0.13 0.10 0.07 0.05 0.04 0.04 0.08 0.03 0.01 0.01 0.02 0.05 0.05 0.02 0.01 0.01 0.00 0.00 0.00 0.00 0.00 0.00 0.00 0.00 0.00 0.00 0.00 0.00 0.00 0.00 0.00 0.00 0.00 0.00 0.00 0.00 0.00 0.00 0.00 0.01 0.01 0.01 0.01 0.02 0.03 0.03 0.04
0.17 0.19 0.18 0.12 0.08 0.08 0.07 0.05 0.04 0.03 0.02 0.02 0.02 0.03 0.02 0.01 0.01 0.01 0.00 0.00 0.00 0.00 0.00 0.00 0.00 0.00 0.00 0.00 0.00 0.00 0.00 0.00 0.00 0.00 0.00 0.00 0.00 0.00 0.00 0.00 0.00 0.00 0.01 0.01 0.01 0.01 0.02 0.03 0.04
0.17 0.19 0.19 0.11 0.09 0.09 0.07 0.04 0.02 0.04 0.03 0.03 0.03 0.02 0.01 0.01 0.00 0.00 0.00 0.00 0.00 0.00 0.00 0.00 0.00 0.00 0.00 0.00 0.00 0.00 0.00 0.00 0.00 0.00 0.00 0.00 0.00 0.00 0.00 0.00 0.00 0.00 0.00 0.01 0.01 0.01 0.01 0.02 0.04
0.17 0.14 0.09 0.06 0.07 0.08 0.06 0.03 0.02 0.02 0.02 0.03 0.02 0.01 0.01 0.01 0.00 0.00 0.00 0.00 0.00 0.00 0.00 0.00 0.00 0.00 0.00 0.00 0.00 0.00 0.00 0.00 0.00 0.00 0.00 0.00 0.00 0.00 0.00 0.01 0.00 0.00 0.00 0.01 0.01 0.01 0.00 0.01 0.02
0.17 0.10 0.05 0.04 0.07 0.08 0.06 0.02 0.02 0.02 0.02 0.02 0.01 0.01 0.01 0.01 0.00 0.00 0.00 0.00 0.00 0.00 0.00 0.00 0.00 0.00 0.00 0.00 0.00 0.00 0.00 0.00 0.00 0.00 0.00 0.00 0.00 0.00 0.01 0.01 0.01 0.01 0.01 0.01 0.01 0.01 0.01 0.01 0.01
0.12 0.10 0.06 0.06 0.08 0.09 0.05 0.02 0.02 0.03 0.02 0.01 0.01 0.00 0.01 0.01 0.00 0.00 0.00 0.00 0.00 0.00 0.00 0.00 0.00 0.00 0.00 0.00 0.00 0.00 0.00 0.00 0.00 0.00 0.00 0.00 0.00 0.00 0.01 0.01 0.01 0.01 0.01 0.01 0.01 0.01 0.02 0.02 0.02
0.08 0.09 0.09 0.08 0.06 0.05 0.03 0.02 0.02 0.03 0.02 0.01 0.00 0.00 0.01 0.01 0.00 0.00 0.00 0.00 0.00 0.00 0.00 0.00 0.00 0.00 0.00 0.00 0.00 0.00 0.00 0.00 0.00 0.00 0.00 0.00 0.00 0.01 0.01 0.01 0.02 0.02 0.01 0.01 0.01 0.01 0.02 0.03 0.03
0.06 0.07 0.07 0.07 0.05 0.05 0.03 0.02 0.02 0.02 0.03 0.02 0.01 0.00 0.01 0.01 0.01 0.00 0.00 0.00 0.00 0.00 0.00 0.00 0.00 0.00 0.00 0.00 0.00 0.00 0.00 0.00 0.00 0.00 0.00 0.00 0.00 0.01 0.02 0.01 0.01 0.01 0.01 0.01 0.01 0.01 0.02 0.03 0.03
0.07 0.05 0.03 0.03 0.02 0.02 0.02 0.02 0.01 0.01 0.03 0.02 0.01 0.00 0.00 0.01 0.00 0.00 0.00 0.00 0.00 0.00 0.00 0.00 0.00 0.00 0.00 0.00 0.00 0.00 0.00 0.00 0.00 0.00 0.00 0.00 0.00 0.01 0.01 0.02 0.02 0.01 0.01 0.01 0.01 0.01 0.02 0.02 0.03
0.03 0.03 0.01 0.01 0.01 0.01 0.01 0.01 0.01 0.01 0.01 0.00 0.00 0.00 0.00 0.00 0.00 0.00 0.00 0.00 0.00 0.00 0.00 0.00 0.00 0.00 0.00 0.00 0.00 0.00 0.00 0.00 0.00 0.00 0.00 0.00 0.00 0.00 0.01 0.03 0.03 0.02 0.01 0.02 0.02 0.02 0.02 0.02 0.02
0.01 0.01 0.01 0.01 0.01 0.01 0.00 0.00 0.00 0.00 0.00 0.00 0.00 0.01 0.00 0.00 0.00 0.00 0.00 0.00 0.00 0.00 0.00 0.00 0.00 0.00 0.00 0.00 0.00 0.00 0.00 0.00 0.00 0.00 0.01 0.00 0.00 0.01 0.01 0.01 0.01 0.01 0.01 0.02 0.03 0.03 0.02 0.03 0.02
0.00 0.01 0.01 0.01 0.01 0.01 0.00 0.00 0.00 0.00 0.01 0.00 0.01 0.02 0.01 0.00 0.00 0.00 0.00 0.00 0.00 0.00 0.00 0.00 0.00 0.00 0.00 0.00 0.00 0.00 0.00 0.00 0.00 0.00 0.01 0.01 0.01 0.01 0.02 0.01 0.02 0.02 0.01 0.02 0.03 0.03 0.02 0.03 0.02
0.00 0.01 0.01 0.02 0.02 0.00 0.00 0.00 0.00 0.00 0.00 0.00 0.00 0.01 0.01 0.01 0.00 0.00 0.00 0.00 0.00 0.00 0.00 0.00 0.00 0.00 0.00 0.00 0.00 0.00 0.00 0.00 0.00 0.00 0.00 0.00 0.01 0.02 0.02 0.02 0.01 0.01 0.02 0.03 0.03 0.02 0.02 0.01 0.01
0.00 0.01 0.01 0.01 0.01 0.00 0.00 0.00 0.00 0.00 0.00 0.00 0.00 0.00 0.01 0.01 0.00 0.00 0.00 0.00 0.00 0.00 0.00 0.00 0.00 0.00 0.00 0.00 0.00 0.00 0.00 0.00 0.00 0.00 0.00 0.01 0.01 0.01 0.01 0.02 0.01 0.01 0.02 0.03 0.02 0.01 0.01 0.01 0.01
0.00 0.01 0.01 0.00 0.00 0.00 0.00 0.00 0.00 0.00 0.00 0.00 0.00 0.00 0.00 0.00 0.00 0.00 0.00 0.00 0.00 0.00 0.00 0.00 0.00 0.00 0.00 0.00 0.00 0.00 0.00 0.00 0.00 0.00 0.00 0.00 0.00 0.00 0.00 0.01 0.02 0.02 0.02 0.01 0.01 0.01 0.01 0.01 0.01
0.00 0.01 0.00 0.00 0.00 0.00 0.00 0.00 0.00 0.00 0.00 0.00 0.00 0.00 0.00 0.00 0.00 0.00 0.00 0.00 0.00 0.00 0.00 0.00 0.00 0.00 0.00 0.00 0.00 0.00 0.00 0.00 0.00 0.00 0.00 0.00 0.00 0.00 0.00 0.01 0.02 0.02 0.02 0.01 0.01 0.01 0.01 0.02 0.02
0.00 0.00 0.00 0.00 0.00 0.00 0.00 0.00 0.00 0.00 0.00 0.00 0.00 0.00 0.00 0.00 0.00 0.00 0.00 0.00 0.00 0.00 0.00 0.00 0.00 0.00 0.00 0.00 0.00 0.00 0.00 0.00 0.00 0.00 0.00 0.00 0.00 0.00 0.00 0.01 0.01 0.02 0.01 0.01 0.02 0.02 0.02 0.02 0.02
MSLP
1011.07 1011.84 1012.80 1013.78 1014.64 1015.26 1015.55 1015.52 1015.25 1014.84 1014.44 1014.14 1014.00 1014.03 1014.15 1014.27 1014.31 1014.18 1013.87 1013.41 1012.87 1012.35 1011.92 1011.65 1011.56 1011.61 1011.76 1011.93 1012.07 1012.14 1012.14 1012.09 1012.03 1012.00 1012.02 1012.09 1012.21 1012.34 1012.47 1012.55 1012.59 1012.57 1012.52 1012.44 1012.37 1012.30 1012.26 1012.24 1012.24
1011.35 1012.29 1013.33 1014.28 1014.99 1015.36 1015.37 1015.05 1014.51 1013.92 1013.41 1013.09 1013.01 1013.13 1013.36 1013.61 1013.76 1013.72 1013.50 1013.11 1012.64 1012.17 1011.80 1011.58 1011.53 1011.62 1011.79 1011.98 1012.13 1012.22 1012.25 1012.22 1012.18 1012.15 1012.16 1012.21 1012.28 1012.37 1012.44 1012.48 1012.48 1012.45 1012.39 1012.32 1012.26 1012.20 1012.15 1012.12 1012.09
1011.81 1012.90 1013.96 1014.82 1015.33 1015.44 1015.15 1014.55 1013.79 1013.05 1012.48 1012.17 1012.15 1012.36 1012.70 1013.04 1013.27 1013.31 1013.15 1012.83 1012.43 1012.03 1011.73 1011.58 1011.57 1011.69 1011.87 1012.06 1012.22 1012.31 1012.33 1012.31 1012.27 1012.23 1012.22 1012.23 1012.26 1012.28 1012.29 1012.28 1012.25 1012.21 1012.16 1012.11 1012.07 1012.03 1012.00 1011.96 1011.93
1012.46 1013.62 1014.65 1015.37 1015.66 1015.50 1014.94 1014.11 1013.19 1012.37 1011.78 1011.51 1011.56 1011.85 1012.27 1012.67 1012.95 1013.03 1012.91 1012.64 1012.30 1011.98 1011.75 1011.65 1011.69 1011.82 1012.00 1012.18 1012.31 1012.37 1012.38 1012.34 1012.28 1012.23 1012.19 1012.16 1012.13 1012.10 1012.06 1012.01 1011.95 1011.91 1011.87 1011.85 1011.84 1011.83 1011.83 1011.81 1011.79
1013.20 1014.38 1015.31 1015.85 1015.92 1015.53 1014.76 1013.78 1012.77 1011.94 1011.39 1011.19 1011.32 1011.67 1012.13 1012.55 1012.83 1012.92 1012.81 1012.58 1012.29 1012.03 1011.86 1011.81 1011.88 1012.01 1012.17 1012.31 1012.39 1012.41 1012.37 1012.30 1012.22 1012.15 1012.08 1012.02 1011.96 1011.88 1011.80 1011.71 1011.64 1011.59 1011.57 1011.58 1011.61 1011.64 1011.67 1011.69 1011.69
1013.91 1015.02 1015.81 1016.16 1016.02 1015.44 1014.54 1013.50 1012.50 1011.73 1011.29 1011.19 1011.39 1011.79 1012.26 1012.66 1012.90 1012.96 1012.84 1012.62 1012.37 1012.16 1012.04 1012.03 1012.11 1012.23 1012.35 1012.43 1012.44 1012.40 1012.31 1012.21 1012.11 1012.02 1011.94 1011.86 1011.78 1011.68 1011.57 1011.46 1011.37 1011.32 1011.31 1011.34 1011.40 1011.48 1011.54 1011.59 1011.63
1014.43 1015.41 1016.01 1016.16 1015.84 1015.14 1014.20 1013.19 1012.30 1011.66 1011.36 1011.39 1011.67 1012.09 1012.54 1012.89 1013.07 1013.08 1012.94 1012.72 1012.49 1012.33 1012.25 1012.27 1012.35 1012.44 1012.51 1012.52 1012.46 1012.35 1012.22 1012.09 1011.97 1011.88 1011.81 1011.73 1011.65 1011.54 1011.41 1011.28 1011.18 1011.12 1011.11 1011.16 1011.24 1011.34 1011.44 1011.52 1011.59
1014.68 1015.46 1015.85 1015.80 1015.35 1014.60 1013.69 1012.79 1012.07 1011.62 1011.48 1011.64 1011.99 1012.43 1012.84 1013.12 1013.23 1013.18 1013.01 1012.79 1012.60 1012.47 1012.44 1012.48 1012.55 1012.62 1012.63 1012.58 1012.46 1012.29 1012.12 1011.97 1011.86 1011.78 1011.73 1011.68 1011.60 1011.49 1011.36 1011.22 1011.09 1011.01 1010.99 1011.03 1011.12 1011.23 1011.35 1011.46 1011.54
1014.61 1015.16 1015.32 1015.11 1014.57 1013.82 1013.01 1012.28 1011.75 1011.51 1011.55 1011.82 1012.23 1012.66 1013.02 1013.23 1013.28 1013.18 1012.99 1012.79 1012.64 1012.56 1012.56 1012.63 1012.70 1012.74 1012.71 1012.60 1012.44 1012.24 1012.05 1011.89 1011.80 1011.75 1011.72 1011.70 1011.64 1011.55 1011.41 1011.25 1011.10 1010.99 1010.94 1010.96 1011.03 1011.14 1011.26 1011.38 1011.48
1014.30 1014.60 1014.56 1014.21 1013.62 1012.92 1012.23 1011.68 1011.36 1011.31 1011.50 1011.86 1012.29 1012.70 1013.01 1013.16 1013.16 1013.04 1012.86 1012.69 1012.59 1012.57 1012.62 1012.71 1012.79 1012.81 1012.76 1012.62 1012.42 1012.21 1012.01 1011.87 1011.80 1011.78 1011.79 1011.80 1011.77 1011.68 1011.54 1011.36 1011.18 1011.04 1010.95 1010.93 1010.97 1011.06 1011.17 1011.29 1011.40
1013.88 1013.96 1013.74 1013.28 1012.68 1012.05 1011.49 1011.11 1010.96 1011.05 1011.34 1011.75 1012.18 1012.55 1012.80 1012.91 1012.88 1012.76 1012.62 1012.50 1012.46 1012.50 1012.60 1012.72 1012.82 1012.84 1012.78 1012.63 1012.43 1012.22 1012.04 1011.92 1011.87 1011.88 1011.92 1011.95 1011.93 1011.85 1011.71 1011.52 1011.32 1011.14 1011.00 1010.93 1010.93 1010.99 1011.09 1011.20 1011.31
1013.53 1013.43 1013.07 1012.55 1011.95 1011.39 1010.94 1010.69 1010.65 1010.82 1011.14 1011.54 1011.93 1012.24 1012.44 1012.51 1012.48 1012.39 1012.30 1012.25 1012.28 1012.38 1012.53 1012.68 1012.80 1012.84 1012.78 1012.65 1012.47 1012.28 1012.12 1012.02 1011.99 1012.02 1012.07 1012.11 1012.11 1012.03 1011.89 1011.69 1011.47 1011.26 1011.09 1010.98 1010.94 1010.96 1011.02 1011.12 1011.22
1013.42 1013.18 1012.73 1012.17 1011.59 1011.07 1010.70 1010.51 1010.51 1010.68 1010.97 1011.30 1011.62 1011.86 1012.01 1012.06 1012.04 1011.99 1011.96 1011.99 1012.08 1012.23 1012.42 1012.60 1012.74 1012.80 1012.78 1012.68 1012.54 1012.38 1012.26 1012.18 1012.16 1012.19 1012.23 1012.27 1012.26 1012.19 1012.05 1011.86 1011.63 1011.41 1011.22 1011.07 1010.99 1010.96 1010.99 1011.06 1011.15
1013.63 1013.30 1012.80 1012.23 1011.66 1011.17 1010.82 1010.63 1010.60 1010.70 1010.89 1011.11 1011.32 1011.48 1011.58 1011.62 1011.63 1011.63 1011.67 1011.75 1011.89 1012.08 1012.29 1012.49 1012.65 1012.74 1012.76 1012.72 1012.63 1012.53 1012.43 1012.37 1012.35 1012.36 1012.38 1012.39 1012.37 1012.30 1012.17 1012.00 1011.79 1011.58 1011.37 1011.20 1011.08 1011.02 1011.00 1011.04 1011.11
1014.13 1013.76 1013.24 1012.66 1012.10 1011.61 1011.24 1010.99 1010.87 1010.85 1010.90 1010.99 1011.08 1011.16 1011.22 1011.26 1011.30 1011.35 1011.43 1011.56 1011.72 1011.92 1012.13 1012.34 1012.52 1012.65 1012.73 1012.75 1012.73 1012.69 1012.63 1012.59 1012.55 1012.53 1012.51 1012.49 1012.45 1012.37 1012.26 1012.12 1011.94 1011.75 1011.56 1011.38 1011.23 1011.13 1011.07 1011.06 1011.10
1014.79 1014.40 1013.88 1013.31 1012.76 1012.26 1011.83 1011.50 1011.26 1011.09 1010.98 1010.92 1010.89 1010.90 1010.92 1010.97 1011.05 1011.14 1011.26 1011.41 1011.57 1011.76 1011.96 1012.16 1012.35 1012.52 1012.66 1012.76 1012.83 1012.85 1012.85 1012.81 1012.76 1012.70 1012.64 1012.57 1012.50 1012.42 1012.33 1012.22 1012.09 1011.94 1011.77 1011.59 1011.43 1011.29 1011.19 1011.13 1011.13
1015.42 1015.04 1014.54 1014.00 1013.45 1012.93 1012.46 1012.03 1011.65 1011.32 1011.06 1010.86 1010.73 1010.67 1010.69 1010.75 1010.86 1011.00 1011.14 1011.29 1011.43 1011.59 1011.76 1011.94 1012.14 1012.35 1012.56 1012.75 1012.91 1013.01 1013.06 1013.04 1012.98 1012.88 1012.77 1012.65 1012.55 1012.47 1012.39 1012.32 1012.24 1012.13 1011.99 1011.83 1011.65 1011.48 1011.34 1011.24 1011.21
1015.83 1015.47 1015.02 1014.53 1014.02 1013.50 1012.98 1012.47 1011.96 1011.49 1011.09 1010.77 1010.56 1010.46 1010.47 1010.56 1010.71 1010.87 1011.04 1011.17 1011.30 1011.41 1011.54 1011.70 1011.90 1012.16 1012.43 1012.72 1012.97 1013.15 1013.26 1013.27 1013.20 1013.06 1012.90 1012.74 1012.61 1012.52 1012.46 1012.43 1012.39 1012.32 1012.22 1012.07 1011.89 1011.70 1011.52 1011.39 1011.31
1015.89 1015.59 1015.23 1014.82 1014.38 1013.90 1013.36 1012.78 1012.18 1011.59 1011.06 1010.63 1010.35 1010.22 1010.23 1010.36 1010.54 1010.74 1010.92 1011.05 1011.15 1011.22 1011.31 1011.45 1011.66 1011.95 1012.29 1012.66 1013.00 1013.26 1013.43 1013.47 1013.39 1013.24 1013.04 1012.85 1012.69 1012.59 1012.54 1012.53 1012.53 1012.51 1012.44 1012.31 1012.13 1011.92 1011.72 1011.56 1011.45
1015.57 1015.37 1015.14 1014.87 1014.55 1014.14 1013.62 1013.01 1012.33 1011.63 1010.99 1010.47 1010.12 1009.96 1009.97 1010.12 1010.34 1010.58 1010.78 1010.92 1011.00 1011.04 1011.11 1011.22 1011.43 1011.75 1012.14 1012.57 1012.99 1013.33 1013.54 1013.62 1013.56 1013.40 1013.18 1012.96 1012.78 1012.67 1012.62 1012.64 1012.67 1012.67 1012.63 1012.52 1012.35 1012.14 1011.93 1011.75 1011.63
1014.95 1014.91 1014.87 1014.80 1014.63 1014.34 1013.87 1013.25 1012.50 1011.71 1010.95 1010.33 1009.89 1009.68 1009.68 1009.84 1010.10 1010.37 1010.61 1010.76 1010.85 1010.88 1010.93 1011.03 1011.24 1011.56 1011.99 1012.46 1012.93 1013.32 1013.59 1013.70 1013.66 1013.50 1013.28 1013.05 1012.86 1012.75 1012.71 1012.73 1012.78 1012.81 1012.79 1012.70 1012.54 1012.34 1012.14 1011.96 1011.84
1014.21 1014.39 1014.59 1014.76 1014.79 1014.64 1014.25 1013.62 1012.81 1011.90 1011.02 1010.26 1009.71 1009.42 1009.38 1009.53 1009.81 1010.12 1010.40 1010.59 1010.70 1010.75 1010.79 1010.89 1011.09 1011.41 1011.83 1012.32 1012.81 1013.24 1013.54 1013.68 1013.67 1013.54 1013.33 1013.11 1012.92 1012.81 1012.77 1012.80 1012.86 1012.90 1012.90 1012.83 1012.69 1012.52 1012.33 1012.17 1012.06
1013.56 1014.00 1014.48 1014.91 1015.16 1015.16 1014.84 1014.20 1013.31 1012.27 1011.22 1010.30 1009.61 1009.20 1009.08 1009.21 1009.49 1009.84 1010.16 1010.41 1010.56 1010.64 1010.69 1010.79 1010.97 1011.27 1011.67 1012.15 1012.64 1013.07 1013.39 1013.56 1013.59 1013.48 1013.31 1013.11 1012.95 1012.84 1012.82 1012.85 1012.91 1012.96 1012.97 1012.92 1012.81 1012.66 1012.50 1012.37 1012.29
1013.16 1013.87 1014.64 1015.33 1015.79 1015.92 1015.64 1014.97 1013.98 1012.78 1011.55 1010.44 1009.57 1009.03 1008.81 1008.88 1009.16 1009.53 1009.90 1010.21 1010.41 1010.53 1010.61 1010.70 1010.87 1011.13 1011.50 1011.94 1012.40 1012.82 1013.15 1013.34 1013.40 1013.35 1013.21 1013.06 1012.92 1012.84 1012.83 1012.86 1012.92 1012.98 1012.99 1012.96 1012.88 1012.76 1012.63 1012.54 1012.49
1013.10 1014.08 1015.10 1016.00 1016.62 1016.84 1016.58 1015.85 1014.73 1013.37 1011.94 1010.63 1009.58 1008.88 1008.55 1008.56 1008.81 1009.20 1009.61 1009.97 1010.24 1010.40 1010.51 1010.61 1010.75 1010.97 1011.29 1011.68 1012.09 1012.49 1012.82 1013.04 1013.14 1013.13 1013.05 1012.95 1012.86 1012.80 1012.80 1012.84 1012.90 1012.96 1012.98 1012.96 1012.90 1012.82 1012.73 1012.66 1012.64
1013.38 1014.55 1015.75 1016.79 1017.50 1017.75 1017.46 1016.64 1015.40 1013.88 1012.28 1010.79 1009.58 1008.74 1008.30 1008.23 1008.45 1008.84 1009.29 1009.69 1010.01 1010.22 1010.36 1010.46 1010.59 1010.77 1011.04 1011.37 1011.75 1012.12 1012.44 1012.68 1012.82 1012.87 1012.85 1012.80 1012.75 1012.73 1012.75 1012.80 1012.86 1012.91 1012.94 1012.94 1012.90 1012.84 1012.78 1012.74 1012.74
1013.88 1015.15 1016.43 1017.51 1018.22 1018.43 1018.08 1017.17 1015.82 1014.17 1012.45 1010.84 1009.50 1008.56 1008.03 1007.90 1008.08 1008.47 1008.92 1009.36 1009.71 1009.96 1010.12 1010.24 1010.35 1010.51 1010.74 1011.03 1011.37 1011.72 1012.04 1012.29 1012.47 1012.58 1012.62 1012.63 1012.62 1012.63 1012.67 1012.72 1012.79 1012.84 1012.88 1012.88 1012.86 1012.82 1012.78 1012.76 1012.78
1014.45 1015.71 1016.94 1017.95 1018.58 1018.70 1018.25 1017.27 1015.85 1014.14 1012.36 1010.70 1009.32 1008.32 1007.75 1007.57 1007.72 1008.08 1008.53 1008.97 1009.33 1009.60 1009.78 1009.90 1010.02 1010.16 1010.37 1010.64 1010.96 1011.31 1011.64 1011.92 1012.14 1012.29 1012.38 1012.43 1012.47 1012.51 1012.56 1012.62 1012.69 1012.75 1012.79 1012.81 1012.80 1012.78 1012.76 1012.75 1012.76
1014.93 1016.05 1017.13 1017.97 1018.44 1018.43 1017.88 1016.85 1015.41 1013.73 1011.99 1010.37 1009.02 1008.04 1007.46 1007.27 1007.37 1007.69 1008.10 1008.51 1008.86 1009.12 1009.31 1009.44 1009.56 1009.72 1009.94 1010.21 1010.54 1010.90 1011.25 1011.56 1011.81 1012.01 1012.14 1012.23 1012.30 1012.36 1012.42 1012.50 1012.57 1012.64 1012.69 1012.72 1012.73 1012.73 1012.71 1012.71 1012.72
1015.21 1016.11 1016.93 1017.53 1017.80 1017.63 1017.01 1015.96 1014.58 1013.00 1011.38 1009.89 1008.66 1007.75 1007.20 1006.99 1007.06 1007.31 1007.64 1007.99 1008.29 1008.52 1008.70 1008.84 1008.99 1009.17 1009.42 1009.73 1010.09 1010.48 1010.86 1011.21 1011.50 1011.72 1011.89 1012.01 1012.10 1012.18 1012.25 1012.33 1012.41 1012.49 1012.56 1012.61 1012.65 1012.66 1012.66 1012.65 1012.65
Thickness
5790 5786 5782 5769 5750 5737 5735 5746 5755 5758 5763 5774 5778 5773 5764 5757 5752 5746 5766 5775 5774 5771 5770 5768 5766 5765 5764 5763 5762 5761 5760 5760 5759 5758 5758 5757 5757 5757 5757 5757 5757 5757 5757 5758 5759 5759 5759 5760 5760
5788 5784 5773 5758 5739 5726 5734 5750 5753 5762 5771 5778 5777 5773 5764 5759 5765 5764 5767 5771 5772 5769 5767 5765 5763 5762 5761 5759 5759 5758 5757 5756 5756 5755 5754 5754 5753 5753 5753 5753 5753 5753 5754 5755 5755 5756 5757 5757 5758
5786 5781 5762 5747 5736 5730 5739 5753 5758 5769 5778 5778 5771 5769 5762 5758 5765 5765 5768 5770 5768 5766 5764 5762 5760 5759 5757 5756 5755 5754 5753 5753 5752 5751 5751 5750 5749 5749 5749 5749 5750 5750 5750 5751 5752 5753 5754 5754 5755
5779 5766 5756 5741 5736 5746 5752 5758 5764 5766 5773 5777 5770 5759 5762 5769 5769 5769 5770 5768 5765 5762 5761 5759 5758 5756 5754 5753 5752 5751 5750 5749 5748 5748 5747 5747 5746 5745 5745 5745 5745 5746 5746 5747 5748 5749 5750 5751 5752
5772 5755 5742 5734 5741 5752 5759 5765 5768 5763 5764 5769 5766 5753 5753 5767 5772 5770 5767 5765 5761 5759 5758 5756 5755 5754 5752 5750 5749 5747 5746 5745 5745 5744 5743 5743 5742 5741 5741 5741 5741 5742 5742 5743 5744 5745 5746 5748 5749
5756 5748 5731 5727 5739 5752 5760 5767 5767 5763 5762 5765 5762 5751 5750 5764 5766 5765 5765 5762 5760 5757 5755 5753 5752 5751 5749 5748 5746 5744 5743 5742 5741 5740 5739 5739 5738 5738 5737 5738 5737 5738 5738 5739 5740 5741 5743 5744 5746
5748 5739 5731 5734 5737 5744 5758 5768 5764 5761 5760 5763 5765 5749 5749 5757 5763 5765 5763 5760 5758 5756 5752 5750 5749 5748 5747 5745 5743 5741 5740 5738 5737 5736 5735 5735 5734 5734 5734 5734 5734 5734 5734 5735 5735 5737 5739 5741 5742
5755 5740 5734 5734 5736 5742 5762 5768 5769 5766 5763 5772 5768 5750 5745 5755 5762 5762 5759 5757 5755 5753 5750 5748 5747 5745 5743 5741 5739 5738 5736 5735 5734 5733 5732 5731 5730 5730 5730 5730 5730 5730 5730 5731 5732 5733 5735 5737 5738
5755 5732 5726 5735 5739 5747 5762 5764 5770 5776 5769 5767 5767 5763 5763 5763 5760 5755 5751 5749 5749 5748 5747 5746 5744 5742 5740 5738 5736 5734 5733 5731 5730 5729 5728 5728 5726 5726 5725 5725 5726 5726 5727 5727 5728 5729 5731 5732 5734
5743 5726 5734 5750 5754 5754 5760 5763 5765 5763 5757 5755 5758 5762 5764 5761 5756 5750 5746 5743 5743 5743 5744 5745 5743 5740 5737 5736 5733 5731 5730 5728 5727 5725 5724 5723 5722 5721 5721 5721 5721 5722 5723 5723 5724 5725 5726 5728 5730
5741 5734 5746 5755 5761 5762 5761 5763 5767 5757 5747 5752 5752 5755 5757 5755 5752 5749 5746 5745 5744 5743 5743 5742 5741 5738 5736 5733 5731 5728 5726 5725 5723 5721 5720 5719 5717 5717 5716 5715 5716 5716 5717 5718 5719 5720 5722 5723 5725
5740 5745 5751 5755 5762 5762 5760 5761 5760 5758 5759 5766 5765 5762 5757 5752 5749 5748 5746 5744 5743 5742 5741 5741 5740 5737 5734 5731 5728 5726 5723 5721 5720 5718 5716 5714 5713 5712 5711 5710 5710 5710 5711 5712 5713 5715 5716 5719 5721
5736 5741 5751 5757 5760 5761 5762 5758 5757 5759 5767 5768 5764 5759 5755 5752 5750 5749 5749 5745 5742 5740 5739 5738 5737 5734 5731 5728 5725 5723 5720 5718 5716 5714 5712 5710 5708 5706 5706 5705 5704 5705 5705 5706 5707 5709 5711 5713 5716
5736 5740 5743 5749 5753 5757 5754 5755 5755 5757 5765 5762 5758 5754 5753 5752 5750 5747 5745 5742 5741 5740 5738 5737 5735 5733 5729 5726 5723 5720 5718 5715 5712 5710 5708 5706 5704 5702 5700 5700 5699 5699 5700 5701 5702 5703 5706 5708 5711
5738 5731 5734 5741 5746 5750 5750 5741 5749 5760 5762 5756 5754 5753 5752 5752 5751 5748 5747 5744 5742 5740 5738 5736 5734 5731 5727 5724 5721 5718 5715 5712 5709 5706 5704 5702 5699 5698 5696 5694 5693 5693 5695 5695 5697 5699 5700 5702 5705
5726 5719 5713 5730 5739 5746 5740 5727 5751 5761 5757 5751 5750 5750 5749 5750 5751 5750 5749 5746 5744 5741 5738 5736 5734 5729 5725 5721 5718 5715 5712 5709 5705 5702 5700 5698 5696 5694 5691 5689 5688 5689 5689 5690 5691 5692 5693 5696 5698
5707 5702 5708 5723 5739 5741 5736 5731 5752 5758 5754 5748 5747 5747 5747 5746 5748 5749 5750 5748 5744 5741 5738 5734 5731 5727 5723 5720 5716 5713 5709 5706 5702 5700 5697 5695 5692 5690 5687 5685 5684 5684 5684 5685 5686 5687 5688 5689 5692
5697 5700 5707 5715 5733 5735 5730 5734 5748 5754 5752 5748 5746 5745 5744 5745 5747 5749 5749 5747 5744 5740 5737 5733 5729 5726 5722 5718 5714 5709 5706 5703 5700 5697 5694 5692 5689 5687 5684 5682 5680 5680 5679 5679 5680 5681 5683 5685 5688
5711 5707 5707 5718 5734 5731 5728 5733 5744 5750 5749 5746 5743 5743 5743 5745 5749 5749 5748 5745 5741 5738 5735 5731 5727 5724 5720 5715 5709 5705 5701 5699 5697 5695 5692 5690 5687 5684 5682 5679 5677 5676 5675 5674 5675 5676 5678 5680 5683
5711 5707 5708 5721 5734 5731 5727 5732 5745 5750 5750 5751 5749 5746 5745 5744 5744 5744 5744 5742 5740 5736 5734 5730 5727 5723 5719 5715 5710 5705 5701 5697 5695 5692 5690 5687 5685 5682 5680 5677 5674 5673 5672 5671 5671 5672 5672 5674 5678
5711 5710 5713 5717 5727 5731 5727 5724 5737 5749 5754 5754 5755 5754 5752 5748 5745 5743 5741 5740 5738 5736 5734 5732 5727 5723 5719 5715 5710 5705 5699 5695 5692 5689 5686 5685 5683 5680 5678 5675 5673 5671 5669 5668 5668 5669 5669 5669 5672
5709 5727 5727 5723 5712 5707 5720 5701 5725 5739 5743 5748 5750 5750 5750 5751 5748 5744 5742 5739 5738 5737 5735 5732 5727 5723 5719 5714 5709 5703 5696 5691 5689 5687 5684 5683 5681 5679 5676 5674 5672 5669 5667 5666 5666 5668 5668 5668 5667
5725 5736 5730 5725 5714 5706 5714 5704 5713 5733 5734 5741 5747 5750 5751 5751 5749 5746 5744 5742 5740 5738 5735 5731 5727 5722 5718 5714 5709 5703 5697 5693 5690 5687 5684 5681 5680 5677 5675 5673 5671 5668 5666 5666 5666 5666 5667 5667 5666
5739 5729 5722 5711 5703 5692 5710 5704 5707 5722 5735 5743 5748 5750 5750 5750 5749 5747 5745 5742 5739 5737 5734 5730 5726 5721 5718 5714 5709 5703 5698 5693 5689 5686 5682 5680 5677 5676 5674 5672 5670 5668 5666 5666 5666 5666 5666 5666 5666
5729 5705 5685 5683 5678 5687 5711 5707 5710 5736 5747 5749 5749 5749 5750 5749 5747 5744 5741 5738 5736 5735 5733 5729 5725 5721 5717 5713 5708 5704 5699 5695 5690 5686 5682 5679 5676 5674 5673 5672 5670 5668 5667 5666 5666 5665 5665 5666 5665
5724 5709 5685 5676 5675 5684 5703 5703 5718 5744 5751 5754 5754 5752 5750 5747 5746 5745 5743 5740 5738 5736 5733 5729 5725 5721 5717 5713 5709 5705 5701 5696 5691 5688 5684 5680 5677 5676 5675 5672 5670 5669 5668 5667 5666 5665 5665 5665 5665
5723 5712 5711 5691 5688 5680 5689 5708 5728 5744 5745 5746 5747 5747 5746 5746 5746 5745 5743 5741 5739 5736 5733 5730 5726 5721 5717 5713 5709 5705 5701 5697 5693 5689 5686 5683 5680 5678 5676 5673 5672 5670 5668 5667 5666 5664 5664 5664 5665
5736 5722 5700 5690 5677 5670 5682 5695 5703 5726 5733 5740 5742 5743 5744 5746 5746 5745 5743 5742 5740 5738 5735 5731 5727 5723 5719 5714 5710 5707 5702 5698 5694 5690 5687 5684 5682 5679 5677 5674 5672 5671 5669 5668 5666 5665 5664 5664 5664
5728 5721 5702 5685 5681 5670 5670 5687 5725 5729 5736 5738 5741 5744 5745 5745 5746 5745 5744 5743 5740 5737 5734 5730 5727 5723 5719 5715 5711 5707 5703 5699 5695 5691 5688 5686 5683 5680 5678 5675 5673 5671 5669 5668 5666 5665 5664 5664 5663
5735 5726 5707 5689 5685 5678 5671 5687 5736 5738 5741 5743 5743 5746 5748 5748 5747 5746 5744 5741 5738 5735 5733 5730 5726 5723 5720 5716 5712 5708 5704 5700 5696 5692 5689 5687 5684 5682 5679 5676 5674 5672 5670 5668 5666 5665 5664 5663 5662